Weather in Besleney

Russia / Karachay-Cherkess Republic     44°14′38″N   41°44′21″E
temp.,
°C
wind,
m/s
gust,
m/s
humid.,
%
clouds,
%
prec.,
mm/h
press.,
hPa
HPBL,
m
23 january, sat
sat2300:00−4s34630 0.0 102830
03:00−4ssw34630 0.0 102725
06:00−4s34630 0.0 102726
09:00−2s33678 0.0 102633
12:00+2sse119416 0.0 102426
15:00+2se11849 0.0 102322
18:000s236745 0.0 102422
21:00−1ssw346673 0.0 102427
24 january, sun
sun2400:00−2s346646 0.0 102431
03:00−2s346423 0.0 102233
06:00−2s44620 0.0 102133
09:00−1s34631 0.0 102143
12:00+3sse228412 0.0 101931
15:00+3se127657 0.0 101722
18:00+2sse1261100 0.0 101922
21:00+2s3465100 0.0 101926
25 january, mon
mon2500:00+2ssw346390 0.0 101933
03:00+2ssw346295 0.0 101930
06:00+1ssw345998 0.0 101929
09:00+2ssw3462100 0.0 102036
12:00+5s237844 0.0 101738
15:00+6se127322 0.0 101622
18:00+3sse226467 0.0 101622
21:00+3s336483 0.0 101726
26 january, tue
tue2600:00+3s4459100 0.0 101747
03:00+2ssw3459100 0.0 101845
06:00+2ssw4457100 0.0 101745
09:00+3s4458100 0.0 101754
12:00+6s3364100 0.0 101549
15:00+7ssw2367100 0.0 101425
18:00+5ssw2370100 0.0 101622
21:00+3sw237194 0.0 101724
27 january, wed
wed2700:00+2nne0076100 0.0 101722
03:00+2ese2272100 0.0 101722
06:00+2ese357489 0.0 1015101
09:00+2se127983 0.0 101439
12:00+5s1170100 0.0 1011103
15:00+5ese0074100 0.0 100958
18:00+3sw1175100 0.0 100922
21:00+2s1172100 0.0 100722